Location: ??
(34.9170°N, 135.5016°E)
Time: 04:54:43
(UTC+00:00)

Explorer 7 - Pass Details

Date: 06 March 2021
Orbit: 484 x 677 km, 50.3° (Epoch: 14 April)

Event Time Altitude Azimuth Distance (km) Brightness Sun altitude
Rises 05:12:53 0° 277° (W) 2,948 10.9 40.1°
Reaches altitude 10° 05:15:59 10° 297° (WNW) 2,005 10.0 39.7°
Maximum altitude 05:19:02 17° 339° (NNW) 1,550 9.1 39.3°
Drops below altitude 10° 05:21:59 10° 21° (NNE) 1,927 9.3 38.9°
Sets 05:24:53 0° 41° (NE) 2,785 9.9 38.4°
